Погода в Сабхе

Ливия     27°02′04″N   14°25′34″E
темп.,
°C
ветер,
м/с
пор.,
м/с
влажн.,
%
обл.,
%
осадки,
мм/ч
давл.,
гПа
погр.,
м
10 августа, ср
ср1023:00+32св712202 0.0 1013271
02:00+29всв815220 0.0 1012343
05:00+27в510270 0.0 1013203
08:00+28в48280 0.0 1014282
11:00+34в43190 0.0 10141601
14:00+36ссв46150 0.0 10123122
17:00+37ссв76140 0.0 10103482
20:00+34св45180 0.0 101050
11 августа, чт
чт1123:00+32св712220 0.0 1012269
02:00+30всв611260 0.0 1011240
05:00+27в712340 0.0 1012272
08:00+28в58330 0.0 1014342
11:00+33вюв44230 0.0 10131586
14:00+36ссв34140 0.0 10113225
17:00+37с76130 0.0 10103599
20:00+34св58160 0.0 1010128
12 августа, пт
пт1223:00+31св814160 0.0 1012284
02:00+29в712240 0.0 1011223
05:00+27вюв46270 0.0 101181
08:00+29юв58230 0.0 1012295
11:00+34ююв43170 0.0 10121374
14:00+37св24150 0.0 10103355
17:00+38ссв44131 0.0 10093804
20:00+35св57150 0.0 101085
13 августа, сб
сб1323:00+32вюв33180 0.0 101128
02:00+30всв46210 0.0 101173
05:00+28юв58220 0.0 1011104
08:00+29юв510200 0.0 1012299
11:00+35ююв43140 0.0 10121326
14:00+38ссв12120 0.0 10113490
17:00+39ссв43110 0.0 10093838
20:00+35ссв57130 0.0 101077
14 августа, вс
вс1423:00+32св916240 0.0 1011451
02:00+30св814260 0.0 1011436
05:00+27всв712450 0.0 1011266
08:00+27всв69460 0.0 1013332
11:00+34в54240 0.0 10131316
14:00+37св33180 0.0 10103113
17:00+38ссв54160 0.0 10093185
20:00+34ссв59160 0.0 1010126